TimeMST,TemperatureF,Dew PointF,Humidity,Sea Level PressureIn,VisibilityMPH,Wind Direction,Wind SpeedMPH,Gust SpeedMPH,PrecipitationIn,Events,Conditions,WindDirDegrees,DateUTC
12:53 AM,30.9,28.0,89,29.99,10.0,SSW,11.5,-,N/A,,Overcast,200,2012-12-07 07:53:00
1:53 AM,30.0,28.0,92,30.01,10.0,SSW,10.4,-,N/A,,Mostly Cloudy,210,2012-12-07 08:53:00
2:10 AM,30.2,28.4,93,29.97,10.0,SSW,9.2,-,N/A,,Overcast,210,2012-12-07 09:10:00
2:53 AM,30.0,27.0,88,30.01,10.0,SSW,13.8,-,N/A,,Scattered Clouds,210,2012-12-07 09:53:00
3:53 AM,28.9,26.1,89,30.01,10.0,SSW,13.8,20.7,N/A,,Partly Cloudy,200,2012-12-07 10:53:00
4:10 AM,28.4,26.6,93,29.97,10.0,SSW,12.7,19.6,N/A,,Mostly Cloudy,210,2012-12-07 11:10:00
4:53 AM,28.9,26.1,89,30.02,10.0,SSW,15.0,-,N/A,,Overcast,210,2012-12-07 11:53:00
5:53 AM,28.9,25.0,85,30.03,10.0,SSW,15.0,-,N/A,,Overcast,210,2012-12-07 12:53:00
6:53 AM,28.0,24.1,85,30.06,10.0,SSW,16.1,-,N/A,,Mostly Cloudy,200,2012-12-07 13:53:00
7:53 AM,27.0,24.1,89,30.08,10.0,SSW,13.8,21.9,N/A,,Overcast,200,2012-12-07 14:53:00
8:53 AM,27.0,24.1,89,30.09,10.0,SSW,13.8,21.9,N/A,,Overcast,210,2012-12-07 15:53:00
9:06 AM,28.4,24.8,86,30.02,10.0,SSW,16.1,21.9,N/A,,Overcast,210,2012-12-07 16:06:00
9:40 AM,28.4,24.8,86,30.03,10.0,SSW,9.2,18.4,N/A,,Overcast,210,2012-12-07 16:40:00
9:53 AM,28.0,23.0,81,30.11,10.0,SSW,13.8,20.7,N/A,,Mostly Cloudy,200,2012-12-07 16:53:00
10:53 AM,28.9,23.0,78,30.11,10.0,SW,12.7,23.0,N/A,,Mostly Cloudy,220,2012-12-07 17:53:00
11:26 AM,30.2,24.8,80,30.03,10.0,SW,16.1,20.7,N/A,,Mostly Cloudy,220,2012-12-07 18:26:00
11:40 AM,30.2,23.0,75,30.02,10.0,SSW,17.3,24.2,N/A,,Mostly Cloudy,210,2012-12-07 18:40:00
11:53 AM,30.0,23.0,75,30.09,10.0,SSW,12.7,21.9,N/A,,Scattered Clouds,210,2012-12-07 18:53:00
12:18 PM,30.2,24.8,80,30.01,10.0,SSW,15.0,24.2,N/A,,Mostly Cloudy,200,2012-12-07 19:18:00
12:53 PM,30.9,23.0,72,30.07,10.0,SW,16.1,-,N/A,,Mostly Cloudy,220,2012-12-07 19:53:00
1:25 PM,33.8,24.8,70,29.98,10.0,SW,18.4,27.6,N/A,,Scattered Clouds,220,2012-12-07 20:25:00
1:51 PM,32.0,24.8,75,29.97,10.0,SSW,16.1,24.2,N/A,,Mostly Cloudy,210,2012-12-07 20:51:00
1:53 PM,32.0,24.1,73,30.04,10.0,SW,17.3,24.2,N/A,,Mostly Cloudy,220,2012-12-07 20:53:00
2:53 PM,32.0,23.0,69,30.02,10.0,SSW,16.1,25.3,N/A,,Overcast,210,2012-12-07 21:53:00
3:23 PM,32.0,24.8,75,29.94,10.0,SSW,15.0,-,N/A,,Partly Cloudy,210,2012-12-07 22:23:00
3:53 PM,32.0,24.1,73,30.00,10.0,SSW,18.4,28.8,N/A,,Clear,210,2012-12-07 22:53:00
4:53 PM,32.0,24.1,73,29.98,10.0,SSW,20.7,24.2,N/A,,Scattered Clouds,210,2012-12-07 23:53:00
6:53 PM,30.9,21.9,69,29.96,10.0,SSW,15.0,23.0,N/A,,Clear,210,2012-12-08 01:53:00
7:53 PM,30.9,21.9,69,29.94,10.0,SSW,16.1,-,N/A,,Clear,200,2012-12-08 02:53:00
8:53 PM,30.0,21.9,72,29.92,10.0,SSW,16.1,21.9,N/A,,Clear,210,2012-12-08 03:53:00
9:53 PM,30.0,23.0,75,29.90,10.0,SSW,12.7,-,N/A,,Partly Cloudy,210,2012-12-08 04:53:00
10:53 PM,30.9,21.9,69,29.86,10.0,SW,15.0,-,N/A,,Overcast,220,2012-12-08 05:53:00
11:53 PM,30.9,21.0,67,29.84,10.0,SW,12.7,-,N/A,,Clear,220,2012-12-08 06:53:00